Overview Statistics Trail Chart Weather Telemetry Raw packets
 

This is the latest recevied weather packets stored in our database for station/object W4SNA-3. If no packets are shown the sender has not sent any weather packets the latest 10 day(s).

<< 35 36 37 38 39 40 41 >>
Time Temp. Humidity Pressure Rain* Wind** Luminosity Snow
1788366139 32.22° C 60% 1022.6 hPa 0 mm - - -
1788365837 32.22° C 60% 1022.6 hPa 0 mm - - -
1788365537 31.67° C 60% 1022.6 hPa 0 mm - - -
1788365237 31.67° C 57% 1022.8 hPa 0 mm - - -
1788364940 31.67° C 64% 1022.8 hPa 0 mm - - -
1788364652 31.67° C 58% 1022.8 hPa 0 mm - - -
1788364340 31.11° C 63% 1022.7 hPa 0 mm - - -
1788364037 31.11° C 61% 1022.7 hPa 0 mm - - -
1788363737 31.11° C 58% 1022.8 hPa 0 mm - - -
1788363437 31.67° C 58% 1022.9 hPa 0 mm - - -
1788363142 31.67° C 56% 1022.9 hPa 0 mm - - -
1788362839 32.22° C 57% 1023 hPa 0 mm - - -
1788362537 32.78° C 58% 1022.8 hPa 0 mm - - -
1788362241 32.22° C 59% 1023 hPa 0 mm - - -
1788361937 32.22° C 56% 1022.9 hPa 0 mm - - -
1788361643 32.22° C 55% 1023 hPa 0 mm - - -
1788361340 32.22° C 57% 1022.9 hPa 0 mm - - -
1788361037 31.67° C 55% 1022.8 hPa 0 mm - - -
1788360737 31.67° C 61% 1022.8 hPa 0 mm - - -
1788360437 31.67° C 58% 1022.8 hPa 0 mm - - -
1788360137 31.67° C 60% 1022.7 hPa 0 mm - - -
1788359837 31.67° C 59% 1022.7 hPa 0 mm - - -
1788359537 31.11° C 63% 1022.7 hPa 0 mm - - -
1788359240 31.11° C 61% 1022.7 hPa 0 mm - - -
1788358937 31.11° C 63% 1022.6 hPa 0 mm - - -

* Rain latest hour (hover to see other rain measurements)
** Current wind speed in m/s (hover to see current wind gust speed)